RO440 LROD-LHDC

Flight info

Callsign RO440
Flight time 0h 18m
Altitude 10000
Route ORA DCT VERIG DCT NARKA
Aircraft B350/L-SBGRW/S

Departure

Time 2026-05-05 15:52
Airport Oradea International Airport (LROD)

Arrival

Time 2026-05-05 16:10
Airport Debrecen International Airport (LHDC)
Time Latitude Longitude Altitude Speed Heading
2026-05-05 15:16 47.02611 21.89935 501 ft 0 kts 159°
2026-05-05 15:39 47.02627 21.89928 473 ft 2 kts 180°
2026-05-05 15:39 47.02630 21.89929 473 ft 0 kts 199°
2026-05-05 15:43 47.02616 21.89950 469 ft 9 kts 95°
2026-05-05 15:44 47.02585 21.89981 473 ft 7 kts 195°
2026-05-05 15:44 47.02560 21.90057 473 ft 5 kts 103°
2026-05-05 15:44 47.02540 21.90170 470 ft 17 kts 107°
2026-05-05 15:44 47.02595 21.90268 471 ft 20 kts
2026-05-05 15:45 47.02765 21.90300 471 ft 29 kts
2026-05-05 15:45 47.02985 21.90352 473 ft 35 kts 10°
2026-05-05 15:45 47.03240 21.90426 473 ft 39 kts 11°
2026-05-05 15:45 47.03409 21.90448 471 ft 11 kts 334°
2026-05-05 15:46 47.03441 21.90485 470 ft 9 kts 142°
2026-05-05 15:46 47.03393 21.90486 473 ft 3 kts 190°
2026-05-05 15:47 47.03367 21.90480 473 ft 31 kts 188°
2026-05-05 15:47 47.02867 21.90331 482 ft 110 kts 194°
2026-05-05 15:47 47.01974 21.90157 740 ft 148 kts 197°
2026-05-05 15:48 47.01206 21.89041 916 ft 179 kts 254°
2026-05-05 15:48 47.01442 21.87146 1005 ft 209 kts 296°
2026-05-05 15:48 47.02156 21.85181 997 ft 228 kts 297°
2026-05-05 15:48 47.03237 21.83416 1011 ft 244 kts 330°
2026-05-05 15:49 47.04629 21.82941 1009 ft 254 kts 356°
2026-05-05 15:49 47.06408 21.82730 985 ft 258 kts 347°
2026-05-05 15:49 47.08125 21.81922 985 ft 252 kts 337°
2026-05-05 15:49 47.09684 21.80877 996 ft 246 kts 330°
2026-05-05 15:50 47.11186 21.79640 1000 ft 242 kts 328°
2026-05-05 15:50 47.12548 21.78235 999 ft 238 kts 318°
2026-05-05 15:50 47.13779 21.76629 1005 ft 237 kts 316°
2026-05-05 15:50 47.15060 21.75071 997 ft 239 kts 321°
2026-05-05 15:51 47.16547 21.74053 1017 ft 241 kts 354°
2026-05-05 15:51 47.18151 21.74658 1006 ft 244 kts 34°
2026-05-05 15:51 47.19441 21.76294 985 ft 244 kts 50°
2026-05-05 15:51 47.20492 21.78245 1029 ft 241 kts 55°
2026-05-05 15:52 47.21519 21.80137 1279 ft 232 kts 50°
2026-05-05 15:52 47.22555 21.81918 1649 ft 224 kts 51°
2026-05-05 15:52 47.23508 21.83613 2144 ft 213 kts 51°
2026-05-05 15:52 47.24701 21.84831 2652 ft 208 kts 11°
2026-05-05 15:53 47.26086 21.84509 3149 ft 198 kts 327°
2026-05-05 15:53 47.27050 21.83193 3626 ft 190 kts 309°
2026-05-05 15:53 47.27942 21.81729 4113 ft 189 kts 308°
2026-05-05 15:53 47.28813 21.80325 4613 ft 188 kts 311°
2026-05-05 15:54 47.29766 21.79003 5097 ft 188 kts 313°
2026-05-05 15:54 47.30713 21.77683 5603 ft 187 kts 311°
2026-05-05 15:54 47.31639 21.76346 6140 ft 186 kts 311°
2026-05-05 15:54 47.32565 21.75022 6652 ft 186 kts 311°
2026-05-05 15:55 47.33402 21.73601 7164 ft 179 kts 288°
2026-05-05 15:55 47.33714 21.71854 7668 ft 175 kts 275°
2026-05-05 15:55 47.33867 21.70054 8048 ft 183 kts 270°
2026-05-05 15:55 47.33912 21.68036 7865 ft 213 kts 263°
2026-05-05 15:56 47.33792 21.65720 7529 ft 237 kts 263°
2026-05-05 15:56 47.33719 21.63222 7251 ft 249 kts 266°
2026-05-05 15:56 47.33644 21.60656 7120 ft 250 kts 264°
2026-05-05 15:56 47.33542 21.58067 7060 ft 249 kts 265°
2026-05-05 15:57 47.33467 21.55526 7026 ft 247 kts 264°
2026-05-05 15:57 47.33459 21.53009 7020 ft 247 kts 278°
2026-05-05 15:57 47.34339 21.50833 7014 ft 256 kts 318°
2026-05-05 15:57 47.36004 21.49847 6837 ft 269 kts 355°
2026-05-05 15:58 47.37829 21.50465 6553 ft 277 kts 30°
2026-05-05 15:58 47.39441 21.51992 6253 ft 281 kts 34°
2026-05-05 15:58 47.41097 21.53539 5951 ft 283 kts 32°
2026-05-05 15:58 47.42811 21.54970 5630 ft 282 kts 32°
2026-05-05 15:59 47.44162 21.57023 5354 ft 277 kts 67°
2026-05-05 15:59 47.44425 21.59748 5167 ft 265 kts 105°
2026-05-05 15:59 47.43574 21.62021 5083 ft 250 kts 142°
2026-05-05 15:59 47.42031 21.62959 5045 ft 240 kts 179°
2026-05-05 16:00 47.40378 21.62836 5012 ft 237 kts 187°
2026-05-05 16:00 47.38757 21.62461 4894 ft 237 kts 192°
2026-05-05 16:00 47.37238 21.61469 4589 ft 244 kts 214°
2026-05-05 16:00 47.35914 21.59855 4268 ft 250 kts 223°
2026-05-05 16:01 47.34703 21.57996 3942 ft 252 kts 227°
2026-05-05 16:01 47.33592 21.55989 3660 ft 251 kts 235°
2026-05-05 16:01 47.32824 21.53727 3523 ft 245 kts 255°
2026-05-05 16:01 47.33026 21.51270 3478 ft 248 kts 291°
2026-05-05 16:02 47.33901 21.49086 3427 ft 247 kts 302°
2026-05-05 16:02 47.34945 21.47089 3399 ft 241 kts 309°
2026-05-05 16:02 47.36186 21.45493 3390 ft 233 kts 324°
2026-05-05 16:02 47.37753 21.44914 3179 ft 241 kts
2026-05-05 16:03 47.39291 21.45875 2928 ft 244 kts 39°
2026-05-05 16:03 47.40492 21.47653 2694 ft 244 kts 49°
2026-05-05 16:03 47.41581 21.49533 2561 ft 236 kts 53°
2026-05-05 16:03 47.42625 21.51373 2335 ft 225 kts 49°
2026-05-05 16:04 47.43704 21.52882 2444 ft 201 kts 41°
2026-05-05 16:04 47.44751 21.53988 2477 ft 174 kts 31°
2026-05-05 16:04 47.45798 21.54764 2470 ft 163 kts 22°
2026-05-05 16:04 47.46862 21.55257 2468 ft 158 kts 13°
2026-05-05 16:05 47.47917 21.55736 2342 ft 166 kts 28°
2026-05-05 16:05 47.48887 21.56814 1725 ft 185 kts 49°
2026-05-05 16:05 47.49696 21.58278 1334 ft 179 kts 57°
2026-05-05 16:05 47.50622 21.59390 1167 ft 172 kts 15°
2026-05-05 16:06 47.51735 21.59160 1084 ft 160 kts 324°
2026-05-05 16:06 47.52232 21.57835 908 ft 146 kts 263°
2026-05-05 16:06 47.51959 21.56547 1193 ft 120 kts 248°
2026-05-05 16:06 47.51630 21.55393 1197 ft 126 kts 238°
2026-05-05 16:07 47.51022 21.54464 1203 ft 128 kts 206°
2026-05-05 16:07 47.50185 21.54750 1119 ft 142 kts 129°
2026-05-05 16:07 47.50177 21.56223 1101 ft 147 kts 77°
2026-05-05 16:07 47.50170 21.57192 1059 ft 144 kts 114°
2026-05-05 16:08 47.49468 21.58003 1023 ft 130 kts 186°
2026-05-05 16:08 47.48804 21.57206 1006 ft 131 kts 245°
2026-05-05 16:08 47.48100 21.56679 921 ft 137 kts 158°
2026-05-05 16:08 47.47660 21.57880 1069 ft 134 kts 111°
2026-05-05 16:09 47.47700 21.59284 1041 ft 147 kts 70°
2026-05-05 16:09 47.48338 21.60664 415 ft 177 kts 45°
2026-05-05 16:09 47.49077 21.61925 365 ft 136 kts 52°
2026-05-05 16:09 47.49562 21.62610 368 ft 63 kts 36°
2026-05-05 16:10 47.49744 21.62650 364 ft 14 kts 272°
2026-05-05 16:10 47.49775 21.62556 369 ft 26 kts 314°
2026-05-05 16:10 47.49901 21.62353 366 ft 17 kts 284°
2026-05-05 16:10 47.49849 21.62232 364 ft 17 kts 231°
2026-05-05 16:11 47.49769 21.62087 364 ft 18 kts 233°
2026-05-05 16:11 47.49509 21.61582 363 ft 25 kts 218°
2026-05-05 16:12 47.49367 21.61418 363 ft 27 kts 218°
2026-05-05 16:12 47.49096 21.61018 363 ft 29 kts 234°
2026-05-05 16:13 47.48925 21.60633 363 ft 9 kts 15°
2026-05-05 16:13 47.48953 21.60652 363 ft 1 kts 329°
2026-05-05 16:13 47.48957 21.60644 363 ft 0 kts 301°